Oroville, CA

1:42 PM PDT on April 24, 2018 (GMT -0700)
Oroville Municipal

Weather History for KOVE - February, 2012

Change the Weather History Date:

Monday, February 27, 2012

  Actual Average Record
Temperature  
Mean Temperature 44 °F -  
Max Temperature 55 °F 65 °F 76 °F (1968)
Min Temperature 33 °F 41 °F 24 °F (1962)
Degree Days  
Heating Degree Days 21    
Moisture  
Dew Point 34 °F    
Average Humidity 73    
Maximum Humidity 96    
Minimum Humidity 40    
Precipitation  
Precipitation 0.00 in - - ()
Sea Level Pressure  
Sea Level Pressure 29.87 in    
Wind  
Wind Speed 5 mph (SE)    
Max Wind Speed 20 mph    
Max Gust Speed 25 mph    
Visibility 10 miles    
Events      
Averages and records for this station are not official NWS values.
T = Trace of Precipitation, MM = Missing Value Source: NWS Daily Summary

Daily Weather History Graph

Daily Weather History Graph

Search for Another Location

Airport or City:

Astronomy

Feb. 27, 2012 Rise Set
Actual Time 6:42 AM PST 5:56 PM PST
Civil Twilight 6:15 AM PST 6:23 PM PST
Nautical Twilight 5:44 AM PST 6:54 PM PST
Astronomical Twilight 5:13 AM PST 7:25 PM PST
Moon 9:17 AM PST (2/27) 11:52 PM PST (2/27)
Length of Visible Light 12h 07m
Length of Day
11h 13m
Waxing Crescent, 30% of the Moon is Illuminated
Feb 27
Waxing Crescent
Feb 29
First Quarter
Mar 8
Full
Mar 14
Last Quarter
Mar 22
New

Hourly Weather History & Observations

Time (PST) Temp. Windchill Dew Point Humidity Pressure Visibility Wind Dir Wind Speed Gust Speed Precip Events Conditions
12:53 AM 37.9 °F - 30.9 °F 76% 29.86 in 10.0 mi Calm Calm - N/A   Scattered Clouds
1:53 AM 36.0 °F 32.1 °F 30.9 °F 82% 29.85 in 10.0 mi WNW 4.6 mph - N/A   Clear
2:53 AM 33.1 °F 27.7 °F 32.0 °F 96% 29.85 in 10.0 mi SSE 5.8 mph - N/A   Clear
3:53 AM 34.0 °F 31.0 °F 30.9 °F 89% 29.85 in 10.0 mi East 3.5 mph - N/A   Clear
4:53 AM 35.1 °F 30.1 °F 30.0 °F 82% 29.85 in 10.0 mi East 5.8 mph - N/A   Clear
5:53 AM 34.0 °F 31.0 °F 30.0 °F 85% 29.86 in 10.0 mi South 3.5 mph - N/A   Partly Cloudy
6:53 AM 34.0 °F - 30.0 °F 85% 29.86 in 10.0 mi Calm Calm - N/A   Clear
7:53 AM 39.0 °F 36.8 °F 32.0 °F 76% 29.88 in 10.0 mi ESE 3.5 mph - N/A   Clear
8:53 AM 41.0 °F 37.1 °F 32.0 °F 70% 29.87 in 10.0 mi SE 5.8 mph - N/A   Clear
9:53 AM 45.0 °F 41.8 °F 36.0 °F 71% 29.87 in 10.0 mi South 5.8 mph - N/A   Clear
10:53 AM 48.9 °F - 35.1 °F 59% 29.86 in 10.0 mi SSE 4.6 mph - N/A   Clear
11:53 AM 52.0 °F - 36.0 °F 54% 29.85 in 10.0 mi South 6.9 mph - N/A   Clear
12:53 PM 54.0 °F - 37.9 °F 55% 29.83 in 10.0 mi South 11.5 mph - N/A   Clear
1:53 PM 55.0 °F - 36.0 °F 49% 29.82 in 10.0 mi South 6.9 mph - N/A   Clear
2:53 PM 55.9 °F - 32.0 °F 40% 29.82 in 10.0 mi SSW 4.6 mph - N/A   Clear
3:53 PM 51.1 °F - 37.0 °F 59% 29.84 in 10.0 mi ENE 15.0 mph - N/A   Partly Cloudy
4:53 PM 50.0 °F - 37.0 °F 61% 29.86 in 10.0 mi NE 19.6 mph 25.3 mph N/A   Scattered Clouds
5:53 PM 46.9 °F - 37.9 °F 71% 29.87 in 10.0 mi North 16.1 mph 25.3 mph N/A   Overcast
6:53 PM 46.9 °F - 37.0 °F 68% 29.89 in 10.0 mi ENE 8.1 mph - N/A   Overcast
7:53 PM 46.0 °F 43.1 °F 37.9 °F 73% 29.88 in 10.0 mi East 5.8 mph - N/A   Scattered Clouds
8:53 PM 45.0 °F 40.6 °F 37.0 °F 74% 29.90 in 10.0 mi ENE 8.1 mph - N/A   Clear
9:53 PM 42.1 °F - 37.0 °F 82% 29.93 in 10.0 mi Calm Calm - N/A   Clear
10:53 PM 39.0 °F - 37.0 °F 93% 29.95 in 10.0 mi Calm Calm - N/A   Clear
11:53 PM 36.0 °F - 34.0 °F 93% 29.96 in 10.0 mi Calm Calm - N/A   Clear